Regional Weather Roundup
Issued by NWS

Home | Current Version | Previous Version | Graphics & Text | Print | Product List | Glossary On
Versions: 1 2 3 4 5 6 7 8 9 10 11 12 13 14 15 16 17 18 19 20 21 22 23 24 25 26 27 28 29 30 31 32 33 34 35 36 37 38 39 40 41 42 43 44 45 46 47 48 49 50
995
ASUS43 KLOT 062303
RWRIL

ILLINOIS REGIONAL WEATHER ROUNDUP
NATIONAL WEATHER SERVICE CHICAGO/ROMEOVILLE IL
500 PM CST SAT FEB 06 2016

NOTE: "FAIR" INDICATES FEW OR NO CLOUDS BELOW 12,000 FEET WITH NO
SIGNIFICANT WEATHER AND/OR OBSTRUCTIONS TO VISIBILITY.

* THESE STATIONS ARE NOT UNDER NWS QUALITY CONTROL. THEY ALSO MAY NOT
  REPORT WEATHER SUCH AS PRECIPITATION OR FOG.

ILZ001-002-007-009-015-016-024-070000-
NORTHWEST ILLINOIS

CITY           SKY/WX    TMP DP  RH WIND       PRES   REMARKS
MOLINE         CLEAR     39  29  67 W7        30.14F WCI  34
STERLING*      CLEAR     39  28  65 W8        30.12S WCI  34
$$

ILZ003-004-008-010-011-017-018-070000-
NORTH CENTRAL ILLINOIS

CITY           SKY/WX    TMP DP  RH WIND       PRES   REMARKS
ROCKFORD       PTCLDY    37  27  67 NW7       30.15S WCI  32
FREEPORT*      CLEAR     33  29  85 W7        30.15F WCI  27
$$

ILZ005-006-012>014-019>023-070000-
NORTHEAST ILLINOIS

CITY           SKY/WX    TMP DP  RH WIND       PRES   REMARKS
CHICAGO-OHARE  PTCLDY    39  28  64 SW8       30.14S WCI  33
CHICAGO-MIDWAY PTCLDY    41  27  57 SW9       30.15F
AURORA         CLEAR     39  29  67 S7        30.14F WCI  34
LANSING*       CLEAR     38  29  69 SW7       30.17F WCI  33
WAUKEGAN       CLEAR     37  28  70 SW12      30.12F WCI  29
DUPAGE AIRPORT CLEAR     38  27  64 SW10      30.13F WCI  31
WHEELING       CLEAR     40  27  59 SW10      30.15S
NORTHERLY ISL    N/A     41  26  55 S9          N/A
$$

LMZ740>746-070000-
SOUTHERN LAKE MICHIGAN

STATION/POSITION SKY/WX   TEMP    WIND        PRES    VSBY  WAVE
                          AIR SEA DIR/SP/G                  HT/PER
                          (F)     (DEG/KT/KT) (MB)    (MI)  (FT/S)
HARRISON CRIB              41     220/ 13/ 15   N/A
BURNHAM HARBOR             41     210/  3/ 10   N/A
CALUMET HARBOR             41                 1020.7F
BURNS HARBOR               40     230/ 11/ 16 1022.4F
MICHIGAN CITY              39     200/ 14/ 16   N/A
$$

ILZ025>027-034>036-040-047-049-050-058-095>099-070000-
WEST-CENTRAL ILLINOIS

CITY           SKY/WX    TMP DP  RH WIND       PRES   REMARKS
QUINCY         CLEAR     47  25  42 W9        30.16F
MACOMB*        CLEAR     44  30  57 SW9       30.18S
$$

ILZ028>032-037-038-041>044-048-051>054-059>061-070000-
CENTRAL ILLINOIS

CITY           SKY/WX    TMP DP  RH WIND       PRES   REMARKS
BLOOMINGTON    CLEAR     42  33  70 SW9       30.17F
DECATUR        CLEAR     47  33  58 SW9       30.18F
PEORIA         CLEAR     43  25  49 SW8       30.16F
SPRINGFIELD    CLEAR     49  31  49 SW7       30.18S
TAYLORVILLE    NOT AVBL
$$

ILZ033-039-045-046-055>057-062-063-070000-
EAST-CENTRAL ILLINOIS

CITY           SKY/WX    TMP DP  RH WIND       PRES   REMARKS
CHAMPAIGN      CLEAR     40  33  76 S7        30.18F
MATTOON        CLEAR     47  29  49 SW6       30.19F
$$

ILZ079-100>102-070000-
SOUTHWEST ILLINOIS

CITY           SKY/WX    TMP DP  RH WIND       PRES   REMARKS
ALTON          PTCLDY    52  30  43 SW10      30.20F
BELLEVILLE     PTCLDY    52  28  39 SW6       30.19F
CAHOKIA*       PTCLDY    55  26  32 W8        30.20F
SPARTA*        CLEAR     54  24  31 SW6       30.23S
$$

ILZ064>066-069>071-074>076-080>082-084>086-088>090-092>094-070000-
SOUTH-CENTRAL ILLINOIS

CITY           SKY/WX    TMP DP  RH WIND       PRES   REMARKS
CARBONDALE     CLEAR     52  17  25 SW10      30.24S
MARION         CLEAR     50  25  37 S8        30.25S
MT. VERNON     CLEAR     48  25  40 S7        30.23F
CENTRALIA*     CLEAR     51  32  48 SW5       30.22S
SALEM*         CLEAR     51  28  41 SW6       30.22S
$$

ILZ067-068-072-073-078-083-087-091-070000-
SOUTHEAST ILLINOIS

CITY           SKY/WX    TMP DP  RH WIND       PRES   REMARKS
LAWRENCEVILLE  CLEAR     46  28  49 SW6       30.24S
HARRISBURG*    CLEAR     52  27  38 SW6       30.25S
ROBINSON*      CLEAR     47  27  44 SW7       30.24S
CARMI*         CLEAR     50  27  40 SW6       30.25S
$$

ABBREVIATIONS USED IN REMARKS
   TC - TEMPERATURE IN CELSIUS
  WCI - WIND CHILL INDEX
   HX - HEAT INDEX
  VSB - VISIBILITY
$$





USA.gov is the U.S. government's official web portal to all federal, state and local government web resources and services.